Location: Fort Wayne
(41.1310°N, 85.1290°W)
Time: 13:41:41
(UTC-04:00)

Tiros 1 despin weight - Visible Passes

Search period start: 18 September 2014 00:00
Search period end: 28 September 2014 00:00
Orbit: 601 x 652 km, 48.2° (Epoch: 17 September)

Date Brightness Start Highest point End Pass type
(mag) Time Alt. Az. Time Alt. Az. Time Alt. Az.
18 Sep ? 04:03:46 13° E 04:03:46 13° E 04:04:18 10° E visible
18 Sep ? 05:41:05 46° WSW 05:41:34 48° SW 05:46:04 10° SE visible
19 Sep ? 04:23:28 13° ESE 04:23:28 13° ESE 04:23:57 10° ESE visible
19 Sep ? 06:00:47 25° SW 06:00:47 25° SW 06:04:33 10° SSE visible
19 Sep ? 21:46:34 10° SSW 21:46:34 10° SSW 21:46:34 10° SSW visible
20 Sep ? 06:20:40 12° SW 06:20:40 12° SW 06:21:35 10° SSW visible
20 Sep ? 20:27:52 10° SE 20:28:38 10° SE 20:28:59 10° SE visible
20 Sep ? 22:05:15 10° SW 22:06:17 17° SW 22:06:17 17° SW visible
21 Sep ? 20:44:09 10° S 20:47:35 22° SE 20:48:29 21° ESE visible
21 Sep ? 22:24:30 10° WSW 22:25:47 19° WSW 22:25:47 19° WSW visible
22 Sep ? 21:02:29 10° SW 21:06:42 44° SE 21:07:46 37° ESE visible
22 Sep ? 22:44:05 10° W 22:45:03 16° W 22:45:03 16° W visible
23 Sep ? 21:21:31 10° WSW 21:25:58 83° SSE 21:26:51 57° ENE visible
23 Sep ? 23:03:51 10° W 23:04:07 11° W 23:04:07 11° W visible
24 Sep ? 19:59:49 10° SSW 20:03:48 33° SE 20:07:48 10° ENE visible
24 Sep ? 21:40:59 10° WSW 21:45:22 60° NNW 21:45:44 58° N visible
25 Sep ? 20:18:36 10° SW 20:22:59 65° SSE 20:27:14 11° ENE visible
25 Sep ? 22:00:41 10° W 22:04:29 40° NNW 22:04:29 40° NNW visible
26 Sep ? 20:37:54 10° WSW 20:42:19 73° NNW 20:45:52 16° ENE visible
26 Sep ? 22:20:27 10° WNW 22:23:06 27° NW 22:23:06 27° NW visible
27 Sep ? 20:57:30 10° W 21:01:48 47° NNW 21:04:24 22° NE visible
27 Sep ? 22:40:10 10° WNW 22:41:38 19° NW 22:41:38 19° NW visible
